Home   Weather   Spain   Arrecife   Past weeks
Flag for Spain

Past Weather in Arrecife, Canary Islands, Spain — Yesterday and Last 2 Weeks

Currently: 73 °F. Passing clouds. (Weather station: Lanzarote / Aeropuerto, Spain). See more current weather

Past Weather in Arrecife — Graph

°F

Arrecife Temperature Yesterday

Maximum temperature yesterday: 79 °F (at 1:00 pm)
Minimum temperature yesterday: 68 °F (at 5:30 am)
Average temperature yesterday: 73 °F

High & Low Weather Summary for the Past Weeks

 TemperatureHumidityPressure
High82 °F (Oct 15, 4:00 pm)94% (Oct 20, 4:30 am)30.15 "Hg (Oct 20, 4:30 am)
Low61 °F (Oct 19, 6:00 am)29% (Oct 17, 12:30 am)29.95 "Hg (Oct 11, 9:00 am)
Average73 °F71%30.05 "Hg
* Reported Oct 11 9:00 am — Oct 26 9:30 am, Arrecife. Weather by CustomWeather, © 2021

Note: Actual official high and low records may vary slightly from our data, if they occured in-between our weather recording intervals... More about our weather records

Arrecife Weather History for the Previous 24 Hours

Scroll right to see more
 ConditionsComfort  
Time TempWeatherWind HumidityBarometerVisibility
9:30 am
Tue, Oct 26
72 °FPassing clouds.10 mph65%30.09 "HgN/A
9:00 am68 °FPassing clouds.8 mph73%30.09 "HgN/A
8:30 am66 °FPassing clouds.10 mph78%30.09 "HgN/A
8:00 am66 °FPassing clouds.13 mph78%30.07 "HgN/A
7:30 am66 °FPassing clouds.8 mph78%30.07 "HgN/A
7:00 am68 °FPassing clouds.12 mph78%30.07 "HgN/A
6:30 am68 °FPassing clouds.12 mph78%30.07 "HgN/A
6:00 am68 °FPassing clouds.10 mph78%30.07 "HgN/A
5:30 am66 °FClear.8 mph78%30.07 "Hg10 mi
5:00 am68 °FClear.9 mph78%30.07 "Hg10 mi
4:30 am68 °FClear.9 mph78%30.07 "Hg10 mi
4:00 am68 °FClear.13 mph78%30.07 "Hg10 mi
3:30 am70 °FClear.14 mph73%30.07 "Hg10 mi
3:00 am70 °FClear.10 mph73%30.07 "Hg10 mi
2:30 am70 °FPassing clouds.9 mph73%30.09 "HgN/A
2:00 am70 °FPassing clouds.9 mph78%30.09 "HgN/A
12:30 am70 °FPassing clouds.9 mph78%30.09 "HgN/A
12:00 am70 °FPassing clouds.7 mph78%30.09 "HgN/A
11:30 pm
Mon, Oct 25
70 °FPassing clouds.6 mph78%30.09 "HgN/A
11:00 pm70 °FPassing clouds.7 mph73%30.09 "HgN/A
10:30 pm70 °FPassing clouds.12 mph78%30.09 "HgN/A
10:00 pm72 °FPassing clouds.15 mph78%30.09 "HgN/A
9:30 pm72 °FPassing clouds.15 mph78%30.09 "HgN/A
9:00 pm72 °FPassing clouds.15 mph73%30.09 "HgN/A
8:30 pm72 °FPassing clouds.14 mph73%30.07 "HgN/A
8:00 pm72 °FPassing clouds.15 mph73%30.07 "HgN/A
7:30 pm73 °FPassing clouds.18 mph69%30.07 "HgN/A
7:00 pm73 °FScattered clouds.18 mph69%30.07 "HgN/A
6:30 pm75 °FScattered clouds.18 mph65%30.04 "HgN/A
6:00 pm77 °FScattered clouds.18 mph57%30.04 "HgN/A
5:30 pm77 °FScattered clouds.17 mph57%30.04 "HgN/A
5:00 pm77 °FScattered clouds.18 mph57%30.04 "HgN/A
4:30 pm79 °FPassing clouds.15 mph51%30.04 "HgN/A
4:00 pm79 °FScattered clouds.18 mph51%30.04 "HgN/A
3:30 pm77 °FScattered clouds.18 mph57%30.04 "HgN/A
3:00 pm77 °FPartly sunny.17 mph61%30.07 "HgN/A
2:30 pm77 °FPartly sunny.14 mph61%30.07 "HgN/A
1:30 pm77 °FScattered clouds.14 mph57%30.07 "HgN/A
1:00 pm79 °FScattered clouds.13 mph54%30.09 "HgN/A
12:30 pm77 °FScattered clouds.13 mph57%30.09 "HgN/A
12:00 pm77 °FScattered clouds.14 mph54%30.09 "HgN/A
11:30 am77 °FPassing clouds.17 mph61%30.09 "HgN/A
11:00 am75 °FScattered clouds.14 mph61%30.09 "HgN/A
10:30 am75 °FPassing clouds.15 mph61%30.09 "HgN/A
10:00 am73 °FPassing clouds.13 mph69%30.09 "HgN/A
Weather by CustomWeather, © 2021

See weather overview